This is the latest recevied weather packets stored in our database for station/object W2EH. If no packets are shown the sender has not sent any weather packets the latest 10 day(s).
| Time | Temp. | Humidity | Pressure | Rain* | Wind** | Luminosity | Snow |
|---|---|---|---|---|---|---|---|
| 1777829739 | 25° C | 36% | 1021.1 hPa | 0 mm | - | 901 W/m² | - |
| 1777829435 | 25° C | 36% | 1020.9 hPa | 0 mm | - | 898 W/m² | - |
| 1777829133 | 25° C | 37% | 1021.1 hPa | 0 mm | - | 899 W/m² | - |
| 1777828830 | 25° C | 35% | 1021.2 hPa | 0 mm | - | 874 W/m² | - |
| 1777828526 | 25° C | 35% | 1021.2 hPa | 0 mm | - | 59 W/m² | - |
| 1777828224 | 25° C | 36% | 1021.3 hPa | 0 mm | - | 50 W/m² | - |
| 1777827920 | 24.44° C | 39% | 1021.3 hPa | 0 mm | - | 141 W/m² | - |
| 1777827618 | 24.44° C | 38% | 1021.4 hPa | 0 mm | - | 92 W/m² | - |
| 1777827315 | 24.44° C | 45% | 1021.5 hPa | 0 mm | - | 454 W/m² | - |
| 1777827011 | 23.89° C | 41% | 1021.6 hPa | 0 mm | - | 49 W/m² | - |
| 1777826709 | 23.89° C | 39% | 1021.7 hPa | 0 mm | - | 52 W/m² | - |
| 1777826405 | 23.89° C | 41% | 1021.8 hPa | 0 mm | - | 72 W/m² | - |
| 1777826102 | 23.89° C | 40% | 1021.6 hPa | 0 mm | - | 103 W/m² | - |
| 1777825798 | 23.89° C | 43% | 1021.7 hPa | 0 mm | - | 46 W/m² | - |
| 1777825496 | 23.33° C | 42% | 1022 hPa | 0 mm | - | 89 W/m² | - |
| 1777825193 | 23.33° C | 42% | 1022.1 hPa | 0 mm | - | 59 W/m² | - |
| 1777824890 | 23.33° C | 40% | 1021.9 hPa | 0 mm | - | 189 W/m² | - |
| 1777824586 | 23.33° C | 40% | 1021.9 hPa | 0 mm | - | 132 W/m² | - |
| 1777824283 | 23.33° C | 42% | 1022 hPa | 0 mm | - | 47 W/m² | - |
| 1777823978 | 22.78° C | 41% | 1021.8 hPa | 0 mm | - | 44 W/m² | - |
| 1777823676 | 22.78° C | 44% | 1022 hPa | 0 mm | - | 45 W/m² | - |
| 1777823373 | 23.33° C | 48% | 1021.8 hPa | 0 mm | - | 47 W/m² | - |
| 1777823071 | 23.33° C | 47% | 1021.9 hPa | 0 mm | - | 43 W/m² | - |
| 1777822768 | 22.78° C | 45% | 1021.8 hPa | 0 mm | - | 60 W/m² | - |
| 1777822466 | 22.78° C | 43% | 1021.9 hPa | 0 mm | - | 620 W/m² | - |
* Rain latest hour (hover to see other rain measurements)
** Current wind speed in m/s (hover to see current wind gust speed)